{"data":{"norad_id":59475,"intl_designator":"2024-068W","name":"STARLINK-31566","alt_names":[],"object_type":"PAYLOAD","status":"ACTIVE","operator":null,"country":"US","launch_date":"2024-04-10","launch_site_code":"AFETR","launch_vehicle":null,"mission":null,"orbit_class":"UNKNOWN","rcs_meters":null,"size_class":null,"mass_kg":null,"dimensions":null,"purposes":["comms"],"wikipedia_slug":null,"has_3d_model":false,"image_url":null,"decayed_at":null,"tle_current":{"epoch":"2026-05-25T04:31:02.267616Z","epoch_age_seconds":52659,"freshness":"FRESH","line1":"1 59475U 24068W   26145.18822069  .00002286  00000+0  92611-4 0  9994","line2":"2 59475  43.0037 322.3628 0000934 287.8746  72.2004 15.27570223120229","mean_motion":15.27570223,"eccentricity":9.34e-5,"inclination_deg":43.0037,"raan_deg":322.3628,"arg_perigee_deg":287.8746,"mean_anomaly_deg":72.2004,"bstar":9.2611e-5,"rev_number":12022,"period_min":94.267352054819,"perigee_km":482.43753453531,"apogee_km":483.71920956681,"semimajor_km":6861.2153720511,"source":"CELESTRAK","updated_at":"2026-05-25T13:38:18.951800Z"}}}